Location: Berduj
(43.0019°N, 22.3781°E)
Time: 11:15:02
(UTC+00:00)

N. Korean satellite - Visible Passes

Search period start: 09 December 2019 00:00
Search period end: 19 December 2019 00:00
Orbit: 456 x 506 km, 97.2° (Epoch: 08 December)

Date Brightness Start Highest point End Pass type
(mag) Time Alt. Az. Time Alt. Az. Time Alt. Az.
09 Dec 8.4 03:54:34 10° NNE 03:57:48 32° E 04:00:58 10° SSE visible
09 Dec 8.4 16:03:40 10° SSW 16:07:06 35° W 16:10:32 10° NNW visible
10 Dec 9.6 03:29:57 10° NE 03:32:13 16° E 03:34:26 10° SE visible
10 Dec 7.3 05:02:33 10° N 05:05:41 30° WNW 05:08:46 10° SW visible
10 Dec 6.9 15:37:55 10° S 15:41:37 77° WSW 15:45:20 10° NNW visible
11 Dec 6.4 04:36:51 10° N 04:40:21 65° WNW 04:43:47 10° SSW visible
11 Dec 10.2 16:48:41 10° WSW 16:49:53 11° W 16:51:05 10° WNW visible
12 Dec 7.2 04:11:26 10° NNE 04:14:55 55° E 04:18:19 10° S visible
12 Dec 9.4 16:21:19 10° SSW 16:24:16 22° W 16:27:12 10° NW visible
13 Dec 8.8 03:46:25 10° NE 03:49:23 25° E 03:52:19 10° SSE visible
13 Dec 7.9 05:20:05 10° NNW 05:22:36 19° WNW 05:25:07 10° WSW visible
13 Dec 7.9 15:55:10 10° S 15:58:43 45° W 16:02:16 10° NNW visible
14 Dec 9.9 03:22:10 10° ENE 03:23:45 13° E 03:25:20 10° ESE visible
14 Dec 7.0 04:54:04 10° N 04:57:21 37° WNW 05:00:33 10° SW visible
14 Dec 6.6 15:29:35 10° SSE 15:33:16 84° ENE 15:36:57 10° N visible
15 Dec 6.3 04:28:27 10° N 04:31:58 84° WNW 04:35:24 10° SSW visible
15 Dec 9.9 16:39:27 10° SW 16:41:27 14° W 16:43:27 10° WNW visible
16 Dec 7.8 04:03:09 10° NNE 04:06:29 42° E 04:09:46 10° S visible
16 Dec 9.0 16:12:40 10° SSW 16:15:51 27° W 16:19:01 10° NW visible
17 Dec 9.2 03:38:17 10° NE 03:40:56 20° E 03:43:32 10° SE visible
17 Dec 7.6 05:11:28 10° NNW 05:14:17 23° WNW 05:17:03 10° WSW visible
17 Dec 7.4 15:46:42 10° S 15:50:20 57° W 15:53:57 10° NNW visible
18 Dec 6.6 04:45:35 10° N 04:48:58 47° WNW 04:52:15 10° SSW visible
18 Dec 6.6 15:21:15 10° SSE 15:24:54 65° ENE 15:28:31 10° N visible
